Left ArrowRight Arrow

47.5369, -111.48136

Hourly Observations for May 13, 2024

Temp ( °F °C ) Dew Point ( °F °C ) Humidity (%) Winds ( mph kmh ) Pressure ( in mb ) Visibility ( mi km ) Precip ( " mm )
12:53 am 00:53 Clear 52 11.1 41 5 66 66 SW 10 17 29.75 1008 10 16 0.00 0.00
1:53 am 01:53 Clear 50 10 41 5 71 71 SW 13 20 29.76 1008 10 16 0.00 0.00
2:53 am 02:53 Clear 51 10.6 41 5 68 68 SSW 10 17 29.75 1008 10 16 0.00 0.00
3:53 am 03:53 Clear 48 8.9 40 4.4 73 73 SW 5 7 29.77 1008 10 16 0.00 0.00
4:53 am 04:53 Clear 50 10 41 5 71 71 SSW 10 17 29.76 1008 10 16 0.00 0.00
5:53 am 05:53 Sunny 50 10 40 4.4 68 68 SW 9 15 29.77 1008 10 16 0.00 0.00
6:53 am 06:53 Sunny 53 11.7 42 5.6 66 66 SSW 10 17 29.77 1008 10 16 0.00 0.00
7:53 am 07:53 Sunny 59 15 43 6.1 55 55 SSW 10 17 29.77 1008 10 16 0.00 0.00
8:53 am 08:53 Sunny 63 17.2 44 6.7 50 50 SW 13 20 29.78 1009 10 16 0.00 0.00
9:53 am 09:53 Sunny 68 20 42 5.6 39 39 WSW 16 26 29.78 1008 10 16 0.00 0.00
10:53 am 10:53 Sunny 72 22.2 41 5 33 33 W 17 28 29.76 1008 10 16 0.00 0.00
11:53 am 11:53 Sunny 73 22.8 40 4.4 30 30 WSW 12 19 29.75 1008 10 16 0.00 0.00
12:53 pm 12:53 Sunny 74 23.3 38 3.3 27 27 SW 12 19 29.74 1007 10 16 0.00 0.00
1:53 pm 13:53 Mostly Sunny 76 24.4 38 3.3 25 25 WSW 16 26 29.73 1007 10 16 0.00 0.00
2:53 pm 14:53 Mostly Cloudy 67 19.4 42 5.6 40 40 WNW 23 37 29.76 1008 10 16 0.00 0.00
3:53 pm 15:53 Mostly Sunny 68 20 40 4.4 36 36 WNW 9 15 29.77 1008 10 16 0.01 0.13
4:53 pm 16:53 Sunny 71 21.7 40 4.4 32 32 NW 13 20 29.75 1007 10 16 0.00 0.00
5:53 pm 17:53 Sunny 67 19.4 41 5 39 39 NNW 10 17 29.76 1008 10 16 0.00 0.00
6:53 pm 18:53 Sunny 70 21.1 38 3.3 31 31 N 6 9 29.73 1007 10 16 0.00 0.00
7:53 pm 19:53 Mostly Sunny 68 20 40 4.4 36 36 NW 3 6 29.73 1007 10 16 0.00 0.00
8:53 pm 20:53 Sunny 57 13.9 42 5.6 57 57 N 3 6 29.77 1008 10 16 0.00 0.00
9:53 pm 21:53 Mostly Cloudy 57 13.9 43 6.1 59 59 SE 5 7 29.78 1008 10 16 0.00 0.00
10:53 pm 22:53 Cloudy with Light Rain 56 13.3 45 7.2 66 66 WSW 9 15 29.81 1009 10 16 0.03 0.76
10:58 pm 22:58 Cloudy with Nearby Thunderstorms 57 13.9 44 6.7 62 62 WSW 13 20 29.77 1008 2 3 0.01 0.25
11:12 pm 23:12 Cloudy with Nearby Thunderstorms 60 15.6 39 3.9 46 46 SSW 10 17 29.73 1007 10 16 0.01 0.25
11:19 pm 23:19 Cloudy with Light Rain 59 15 40 4.4 49 49 S 14 22 29.74 1007 10 16 0.01 0.25
11:53 pm 23:53 Cloudy 54 12.2 45 7.2 71 71 W 7 11 29.78 1009 10 16 0.01 0.25

Powered by Vaisala Xweather